Regional Weather Roundup
Issued by NWS Sioux Falls, SD

Home | Current Version | Previous Version | Text Only | Print | Product List | Glossary Off
Versions: 1 2 3 4 5 6 7 8 9 10 11 12 13 14 15 16 17 18 19 20 21 22 23 24 25 26 27 28 29 30 31 32 33 34 35 36 37 38 39 40 41 42 43 44 45 46 47 48 49 50

000
ASUS43 KFSD 070302
RWRFSD

WEATHER ROUNDUP FOR SE SOUTH DAKOTA/SW MINNESOTA/NW IOWA
NATIONAL WEATHER SERVICE SIOUX FALLS SD
1000 PM CDT MON JUL 06 2015

NOTE: "FAIR" INDICATES FEW OR NO CLOUDS BELOW 12,000 FEET WITH NO
SIGNIFICANT WEATHER AND OR OBSTRUCTIONS TO VISIBILITY.


SDZ038>040-050-052>070-070400-
SOUTHEAST SOUTH DAKOTA

CITY           SKY/WX    TMP DP  RH WIND       PRES   REMARKS
BROOKINGS      CLEAR     61  50  67 NE6       30.14R
CHAMBERLAIN    MOCLDY    65  58  76 CALM      30.14R
HURON          MOCLDY    63  55  75 NE6       30.12R HAZE
MADISON        FAIR      59  57  94 NE6       30.13R
MITCHELL       CLEAR     63  57  81 N5        30.12R
SIOUX FALLS    CLEAR     60  53  77 N8        30.09S
WINNER         FAIR      66  55  67 NE5       30.15R
YANKTON        CLEAR     64  54  68 N9        30.09R
$$

MNZ071-072-080-081-089-090-097-098-070400-
SOUTHWEST MINNESOTA

CITY           SKY/WX    TMP DP  RH WIND       PRES   REMARKS
FAIRMONT       PTCLDY    63  48  59 NW8       30.04R
JACKSON        PTCLDY    61  50  67 N9        30.07R
MARSHALL       CLEAR     57  48  72 N7          N/A
PIPESTONE      CLEAR     61  52  72 N6        30.11R
REDWOOD FALLS  CLEAR     60  49  66 N7        30.07S
TRACY          CLEAR     60  51  74 N12       30.10S
WINDOM         CLEAR     59  48  67 N10       30.07S
WORTHINGTON    CLEAR     57  48  72 N9        30.09R
$$

IAZ001>003-012>014-020>022-031-032-NEZ013-014-SDZ071-070400-
NORTHWEST IOWA

CITY           SKY/WX    TMP DP  RH WIND       PRES   REMARKS
DENISON        CLOUDY    68  61  77 N10       30.02R HAZE
ESTHERVILLE    PTCLDY    60  52  74 N10       30.05R
SIOUX CITY     CLEAR     67  54  63 N13       30.08R
SPENCER        PTCLDY    63  50  62 N15       30.07R
$$

ABBREVIATIONS USED IN REMARKS
   TC - TEMPERATURE IN CELSIUS
  WCI - WIND CHILL INDEX
   HX - HEAT INDEX
  VSB - VISIBILITY




USA.gov is the U.S. government's official web portal to all federal, state and local government web resources and services.